{"data":{"norad_id":43232,"epoch":"2026-09-20T02:13:59.901024Z","epoch_age_seconds":49454,"freshness":"FRESH","line1":"1 43232U 18024B   26263.09305441 -.00000027  00000+0  00000+0 0  9992","line2":"2 43232   0.0590 359.2973 0002541 181.2437 179.4610  5.00116113155698","mean_motion":5.00116113,"eccentricity":0.0002541,"inclination_deg":0.059,"raan_deg":359.2973,"arg_perigee_deg":181.2437,"mean_anomaly_deg":179.461,"bstar":0,"rev_number":15569,"period_min":287.93313443992,"perigee_km":8062.2081911246,"apogee_km":8069.5486397588,"semimajor_km":14444.015415442,"source":"CELESTRAK","updated_at":"2026-09-20T09:00:35.685727Z"}}